Theta_e
308 312 312 308 306 309 304 304 304 309 314 321 324 326 329 330 331 334 336 336 337 338 340 340 343 344 344 342 345 345 342 339
308 310 310 310 311 305 308 301 300 307 309 311 320 322 327 329 330 331 333 335 337 340 343 340 341 342 342 344 342 340 338 336
306 307 307 308 308 307 310 308 303 302 308 320 321 324 327 330 332 333 333 334 336 338 339 339 338 341 341 339 337 334 333 332
303 307 307 307 307 308 304 305 309 309 308 321 323 327 330 330 333 336 337 338 336 335 335 336 337 340 338 336 332 331 330 329
300 303 304 305 307 308 307 309 309 305 308 322 328 329 331 331 334 335 331 336 336 336 335 334 332 336 335 333 330 329 328 326
297 301 306 305 308 307 308 306 306 307 311 319 324 327 329 331 333 332 331 334 334 333 333 334 335 332 331 329 328 327 326 325
305 305 306 306 306 308 308 311 308 311 312 320 324 327 330 331 333 333 331 332 334 332 332 332 330 329 328 326 326 325 324 324
302 304 304 304 308 309 310 310 311 313 313 322 327 329 328 331 332 332 332 332 332 332 332 330 328 327 326 324 323 324 323 322
301 306 306 302 307 310 312 313 314 311 317 324 324 326 327 330 333 333 333 332 331 331 331 328 326 326 323 322 323 323 322 322
304 307 297 306 316 315 313 315 317 318 321 325 326 329 330 333 334 334 333 331 331 331 328 326 325 323 323 322 322 321 321 321
305 303 306 310 314 314 314 314 319 320 323 325 327 328 328 333 335 336 335 332 332 331 327 325 323 322 321 320 320 320 319 320
307 303 300 312 318 321 320 310 322 323 324 324 325 319 324 334 338 338 334 331 330 327 325 323 321 321 320 319 319 319 320 320
306 306 309 317 317 322 309 312 324 326 327 326 325 328 332 336 335 334 332 329 328 326 323 321 321 320 318 319 319 320 322 323
306 305 302 319 319 316 325 325 328 328 329 329 329 331 332 333 330 328 326 324 325 322 320 320 319 319 318 318 321 322 321 321
311 310 318 323 325 327 327 330 331 330 331 331 328 329 329 327 325 324 324 324 323 321 319 319 318 319 318 320 322 322 320 319
314 319 318 321 324 324 329 334 335 333 330 330 327 328 326 324 323 323 322 321 321 320 319 317 318 320 321 321 322 320 319 319
316 321 321 323 324 326 331 336 335 331 329 326 328 326 325 322 321 321 321 321 321 320 319 318 319 319 320 321 321 319 319 318
316 320 321 321 325 329 332 332 331 329 326 327 328 323 322 320 320 319 319 320 319 320 318 317 317 318 319 320 319 317 316 315
322 324 323 325 327 330 332 331 330 328 326 324 324 323 322 318 318 316 318 318 318 317 316 316 316 316 317 318 317 316 316 315
Wind_Speed
5 6 8 6 6 2 5 1 4 2 4 10 7 2 3 7 11 13 12 12 11 8 7 7 7 6 4 9 10 12 13 14
3 4 4 4 10 5 1 5 5 4 4 7 6 8 5 6 9 9 10 10 9 6 5 5 5 6 8 10 11 12 13 13
4 6 8 5 5 3 3 2 5 5 4 3 4 12 12 9 9 10 9 8 7 6 6 6 8 10 13 12 12 10 11 13
12 1 2 2 2 6 5 6 1 4 4 1 1 10 12 11 11 10 8 9 9 9 8 8 8 10 12 11 10 10 11 11
6 6 3 7 5 6 2 2 8 8 6 4 6 10 10 14 12 9 11 12 11 10 9 10 10 11 12 11 10 10 10 12
10 6 4 7 7 8 11 5 7 10 11 8 12 13 13 13 12 10 10 12 11 11 11 11 10 11 11 11 9 9 10 11
14 13 11 12 9 9 12 10 9 7 12 10 17 19 16 15 13 13 13 12 12 13 11 11 11 10 10 10 10 11 10 9
7 9 10 11 9 10 13 9 11 6 11 4 16 16 16 16 16 16 16 15 14 13 12 11 11 11 10 9 8 7 6 6
6 6 8 8 14 12 8 9 8 11 6 13 19 19 20 19 17 17 17 17 16 14 12 11 11 10 9 8 7 7 7 6
3 9 8 2 1 10 11 5 12 7 6 13 14 15 15 15 17 17 16 16 15 13 12 11 11 10 9 8 8 7 6 7
4 8 2 3 6 10 12 12 15 8 12 14 16 16 13 14 14 16 16 15 14 13 13 12 11 9 8 8 7 6 7 8
4 5 8 6 9 7 3 9 14 14 18 23 20 11 10 17 15 16 16 15 15 15 13 12 10 9 9 8 6 5 5 5
6 5 3 4 7 9 7 6 20 19 21 22 13 3 15 19 16 16 16 17 17 15 13 11 9 8 8 7 6 5 4 4
3 5 7 9 9 10 7 1 17 17 21 18 12 18 22 20 20 19 19 19 17 14 12 11 9 9 9 8 6 4 5 5
7 5 3 15 4 5 6 7 16 19 20 17 21 21 21 20 20 19 20 17 15 14 14 11 10 9 10 8 6 5 5 5
3 6 12 10 13 10 7 10 15 16 22 19 23 22 20 19 19 18 17 17 15 15 14 12 9 8 8 7 6 5 5 3
6 12 8 13 12 7 5 14 16 14 17 21 24 21 22 20 19 17 16 15 14 13 12 12 10 9 8 6 5 4 2 1
4 3 5 3 5 8 11 13 21 28 18 16 21 25 21 18 17 17 17 15 13 12 12 11 10 9 7 6 5 4 3 3
4 1 8 9 3 7 10 14 16 15 21 24 16 19 22 20 16 17 16 15 13 13 12 10 9 8 6 5 4 4 4 3
Wind_Direction
218 185 198 152 197 81 138 121 234 162 258 256 232 135 63 110 147 164 163 166 176 179 168 155 159 166 126 85 112 110 105 95
141 167 77 255 141 167 211 192 232 182 264 265 181 181 159 154 140 147 152 162 168 158 138 143 114 85 110 105 93 90 87 92
219 197 179 155 172 67 116 288 248 239 226 227 190 171 168 152 144 153 158 161 160 132 106 101 100 107 107 103 102 98 99 91
229 307 354 245 230 215 237 177 234 302 243 69 148 167 150 145 135 125 123 138 133 124 126 113 95 121 115 115 109 106 99 96
201 182 141 222 194 206 176 141 200 221 235 110 140 141 144 144 139 126 127 132 126 123 115 112 116 121 116 113 101 85 76 74
223 224 207 201 195 201 218 206 193 224 238 186 176 159 151 150 141 139 135 133 126 126 130 126 124 118 108 96 91 85 75 70
231 231 214 236 231 195 210 235 223 228 217 239 181 166 163 153 149 142 143 143 143 142 139 138 128 114 99 81 64 56 57 60
239 219 219 239 243 213 226 228 252 255 251 144 157 146 154 160 160 154 153 153 152 145 146 138 126 114 104 98 93 94 100 99
229 191 175 238 234 214 212 219 202 212 226 148 163 164 165 165 166 163 161 156 156 154 146 141 131 117 108 105 116 106 94 87
134 155 221 217 256 222 213 258 199 247 149 170 169 156 162 168 166 167 164 161 155 150 142 138 128 120 124 123 110 109 107 95
197 208 348 199 192 184 189 233 193 179 141 148 138 135 159 179 182 173 164 157 151 144 145 141 132 124 118 112 111 109 86 71
171 200 204 209 185 165 150 250 182 177 160 158 158 163 175 177 171 160 154 147 146 144 143 131 128 137 128 123 125 130 128 122
192 249 254 229 149 149 188 226 175 177 165 164 173 69 136 152 153 152 147 144 143 144 139 134 141 128 139 156 163 133 136 129
160 205 248 159 137 192 207 299 174 168 163 163 117 123 137 143 144 145 141 141 147 140 138 138 144 158 152 158 137 136 121 133
221 214 344 199 313 222 164 164 171 164 162 149 133 140 144 144 145 145 146 146 145 143 144 153 158 163 155 139 152 157 156 148
265 217 236 247 253 276 224 158 172 164 153 150 136 144 142 145 145 145 146 148 148 149 152 150 152 154 138 149 156 161 155 154
264 276 264 252 246 238 213 150 140 138 154 143 141 148 148 145 144 143 145 147 151 156 150 144 145 151 151 149 156 156 139 196
253 358 308 293 324 196 171 164 151 136 151 148 149 144 143 140 143 147 148 147 150 146 143 142 150 151 152 156 168 162 183 201
279 296 266 288 303 208 170 155 149 138 143 141 139 140 137 139 147 144 145 139 144 144 139 146 149 151 151 163 178 177 202 222